Volver al catálogo

STARLINK-5028

ActivoComunicacionesVLEO
NORAD 53886·PAYLOAD·🇺🇸 United States

Lanzado Sep 24, 2022 desde Cape Canaveral Space Force Station

Loading…

Próximos Pases (próximas 24 horas)

TLE

ActualizadoSource: CelesTrak SupGP

Época: Sep 15, 2026, 02:46 UTC

1 53886C 22119A   26258.11576389  .00253130  00000+0  74945-2 0  2580
2 53886  53.1600 188.5370 0001337  82.9756  42.3161 15.34197943    14

Sigue STARLINK-5028 en tiempo real con AllMySat

Download on the App Store